COSMOS 1261 DEB, 27796

Orbit data source: Space-Track

COSMOS 1261 DEB, 27796 is space debris in HEO originally from a launch on Tue, 31 Mar 1981 UTC launched from the Plesetsk Missile And Space Complex (PKMTR). Debris objects in space refer to the collection of defunct objects orbiting the Earth. Examples of debris include non-operational satellites, rocket bodies, and fragments generated from explosions, collisions, or faulty payload assembly.

Loading next visibility...
COSMOS 1261 DEB details
Identifier
27796, 1981-031H
Orbit
HEO
Last TLE update2 days ago
Origin
Flag of CISGUKOS (CIS)
ManufacturerUnknown
MissionSpacecraft
Bus & MotorUnknown
MassUnknown
Launch date (UTC)
1981-03-31 (44 years ago)
Launch vehicleUnknown
Launch site
Plesetsk Missile And Space Complex (PKMTR)
Object type
Payload
Rocket body
Debris
Shape & HBRUnknown
Radar Cross SectionMedium (>0.1 m² and <1 m²)

Expand to show TLE details & history

TLE from 2 days ago
0 COSMOS 1261 DEB
1 27796U 81031H   25034.29776756  .00000104  00000-0  00000-0 0  9992
2 27796  65.4453  48.1288 6933703  23.8608 356.8885  2.01727192175804
Epoch: 2025-02-03T07:08Z
Definitive object data (Epoch: 2025-02-03T07:08:47.117Z)
Latitude0.00026°
Longitude167.18418°
Altitude2,043.077 km
Speed8.923 km/s
True Right ascension03h 12m 23s
True Declination0° 00' 01"
Sunlit
Object was in daylight at TLE epoch
Visualization TLE readout
Latitude12.69303°
Longitude172.86977°
Altitude1,796.395 km
Speed9.082 km/s
Apparent Right ascension01h 17m 35s
Apparent Declination-15° 01' 40"
Sunlit
Object is in daylight
Visualization observer readout
Local Sidereal Time08:50:08
Azimuth272.878° WNW
Elevation-27.223°
Doppler factor1
Orbital elements
Apogee altitude38,423.459 km
Perigee altitude1,734.383 km
Semi-major axis26,457.058 km
Eccentricity0.6933703
Inclination65.4453°
RAAN48.1288°
Arg. of periapsis23.8608°
True anomaly336.69189°
Mean anomaly356.8885°
Eccentric anomaly349.9683°
Mean motion0.50435 °/min
BSTARUnknown
Orbital period713.79 mins
Loading maneuver chart data...
Loading historical data...
Loading historical data...
Loading historical data...
Loading historical data...
Loading historical data...
Loading historical data...
Loading historical data...

COSMOS 1261 DEB Visibility forecast

Observer location: undefined°, undefined

Span
Click to sort rows by Start time (UTC) header in descending order
Start Az.
Max El. time (UTC)
Max El. Az.
Max El.
End time (UTC)
End Az.
431 mins2025-02-05 07:01:54.797Z312.751° NW2025-02-05 07:16:54.797Z22.879° NE31.631°2025-02-05 14:12:54.797Z179.939° S
|